Location: Waco, TX
(31.5480°N, 97.1670°W)
Time: 15:10:24
(UTC-05:00)

ISS - Pass Details

Date: 17 September 2019
Orbit: 411 x 421 km, 51.6° (Epoch: 17 September)

Event Time Altitude Azimuth Distance (km) Brightness Sun altitude
Rises 21:17:28 0° 236° (WSW) 2,330 0.6 -22.9°
Reaches altitude 10° 21:19:36 10° 243° (WSW) 1,471 -0.4 -23.3°
Enters shadow 21:22:13 40° 285° (WNW) 615 -2.5 -23.9°
Maximum altitude 21:22:47 45° 318° (NW) 566 - -24.0°
Drops below altitude 10° 21:25:59 10° 33° (NNE) 1,476 - -24.6°
Sets 21:28:08 0° 39° (NE) 2,340 - -25.1°
